Wind_Speed
1 1 2 2 2 1 2 3 4 4 4 4 5 5 5 4 4 5 5 5 5 5 5 5 5 6 5 5 5 5 5 5 4 4 4 5 5 6 6 7 8 7 7 7 7 7 7 7 7
1 2 2 1 1 2 2 3 3 4 5 5 5 5 4 4 4 4 5 6 5 5 6 5 6 5 5 6 6 5 5 5 5 5 5 5 6 6 6 6 7 7 8 8 8 7 8 8 8
2 2 2 2 1 2 2 3 4 4 5 5 5 5 4 4 4 5 5 5 5 5 6 6 6 5 5 5 5 6 6 6 6 6 6 6 6 6 5 5 6 7 7 8 8 8 8 8 8
2 2 2 2 2 3 4 4 4 4 5 5 5 5 4 4 4 4 5 5 5 5 5 5 5 5 5 5 6 6 6 6 7 7 6 7 7 6 6 6 6 6 7 7 8 9 9 9 9
2 2 2 2 3 4 4 4 4 4 5 5 5 5 5 5 5 5 5 5 5 5 5 5 5 5 6 6 6 6 6 6 6 6 6 6 6 5 6 6 6 6 6 7 8 8 9 9 10
2 3 2 2 4 4 4 4 4 4 5 5 5 5 5 5 5 5 5 5 5 4 4 4 5 5 6 6 7 6 6 6 6 6 6 6 5 6 6 6 6 6 7 7 8 8 9 9 10
3 3 3 3 4 4 4 4 4 4 4 5 5 5 5 5 5 5 5 5 5 5 4 4 4 5 5 6 6 6 6 6 6 6 5 5 5 5 6 5 5 6 7 7 8 9 9 10 10
3 4 4 4 4 4 4 4 5 5 5 5 5 5 4 5 5 5 5 5 5 5 4 5 5 5 5 5 5 6 6 6 5 5 5 5 5 5 5 5 5 6 7 7 7 8 9 9 9
4 4 4 5 5 5 4 5 5 6 6 6 6 6 6 6 6 6 6 5 5 5 5 5 5 5 5 5 4 4 5 5 5 6 5 5 5 5 5 5 6 6 6 6 7 7 8 9 9
4 5 5 5 5 5 5 6 6 7 7 7 7 7 7 7 7 7 6 6 6 5 5 5 5 5 5 5 5 5 5 5 5 5 5 5 5 5 6 6 6 6 6 7 7 7 7 7 8
5 5 5 6 6 6 6 7 7 8 8 8 8 7 7 7 7 7 6 6 6 6 6 6 5 5 5 5 5 5 6 6 5 4 4 5 5 6 6 7 7 7 6 6 6 6 6 7 7
5 5 6 6 6 7 7 7 7 7 7 8 7 7 7 8 7 7 6 6 7 7 7 7 6 6 5 5 6 6 6 5 4 5 5 5 6 6 6 6 6 6 6 6 7 7 7 7 8
6 6 7 7 7 7 7 7 6 6 6 6 7 6 6 7 7 7 6 6 7 7 7 7 7 6 6 6 6 6 5 5 6 6 6 6 6 6 7 7 6 7 7 8 8 8 9 8 9
7 7 7 7 7 8 8 8 7 6 6 6 6 7 6 7 7 7 7 6 6 6 6 7 7 7 6 6 5 5 5 6 6 7 7 7 7 7 8 8 8 8 9 9 9 10 10 10 10
6 8 8 8 8 9 9 9 7 7 7 7 7 7 7 7 7 7 7 6 6 6 6 7 7 7 6 5 5 5 6 6 6 7 7 7 8 9 9 9 10 10 11 11 11 12 12 12 12
7 8 8 8 9 9 10 9 9 8 8 9 8 8 8 7 7 7 7 7 7 7 7 7 7 7 6 6 7 7 7 7 7 8 8 8 9 10 10 10 10 11 11 12 12 13 14 14 14
8 8 9 9 10 10 10 10 10 10 10 10 10 9 9 8 8 8 8 8 8 9 9 8 7 7 7 7 8 8 8 9 9 9 9 10 10 10 11 11 11 12 12 12 13 14 14 15 15
9 9 10 11 11 11 12 11 11 11 12 11 11 10 9 9 10 9 10 10 10 10 9 9 8 8 8 8 8 9 10 10 10 11 11 11 11 11 12 11 12 13 13 13 14 15 15 15 15
11 11 10 11 11 13 13 12 12 13 13 12 12 11 10 10 11 11 10 10 11 10 10 10 10 9 9 9 10 10 11 11 12 12 12 13 13 13 13 13 13 13 14 15 15 15 16 16 16
12 12 12 12 12 13 14 13 13 14 14 14 13 12 12 12 13 12 12 11 11 11 10 11 11 11 10 11 11 11 12 12 13 13 13 13 14 14 14 14 14 14 15 15 15 15 15 15 16
13 13 13 13 12 13 14 14 13 14 15 15 14 13 13 13 13 13 12 12 11 11 11 11 12 12 12 12 12 12 12 13 13 14 14 14 14 15 15 15 15 15 15 15 15 15 15 15 15
14 13 13 14 14 14 14 14 13 13 14 15 14 14 14 14 14 13 13 12 12 12 12 12 12 13 13 13 13 13 13 14 14 14 14 15 15 15 15 15 15 15 15 15 15 15 15 15 15
14 14 13 14 14 14 14 15 14 14 14 14 14 16 16 15 15 14 14 13 13 13 13 13 13 14 14 13 13 14 14 15 15 15 15 15 15 15 15 15 15 16 16 16 16 16 15 15 15
15 14 14 14 14 14 14 15 15 14 15 15 15 17 17 16 16 16 15 15 14 14 14 15 14 14 14 15 15 15 15 15 16 16 17 16 16 16 16 16 16 16 16 16 16 16 16 16 16
15 14 13 13 14 14 13 15 16 15 16 16 16 17 17 17 17 17 17 16 16 16 16 16 16 16 16 16 16 16 16 16 17 18 18 17 16 16 16 16 17 17 17 16 16 16 16 16 16
16 15 14 13 12 13 14 17 16 15 17 17 17 17 17 17 17 17 18 18 17 18 18 18 17 17 17 17 17 17 17 17 17 17 17 16 15 15 16 16 17 17 16 16 16 16 16 16 16
16 16 16 15 14 13 14 16 16 16 17 18 18 17 17 17 18 18 18 19 19 19 19 19 18 18 18 18 17 17 17 17 16 16 16 15 15 15 15 16 15 16 16 15 16 16 17 17 17
17 16 16 17 16 15 15 16 18 17 17 18 18 18 17 17 18 18 19 19 19 19 19 18 18 19 18 18 18 17 17 17 16 16 16 16 16 16 16 16 16 16 16 16 17 17 17 17 18
18 18 18 19 18 16 16 18 18 19 18 17 18 19 18 19 19 19 20 19 19 19 19 19 19 19 18 18 18 19 18 17 17 17 17 17 17 17 16 16 17 17 17 17 18 18 18 18 19
19 18 18 19 19 19 20 21 19 19 20 19 19 19 20 19 19 20 20 21 21 21 21 20 19 19 19 19 19 19 18 17 17 17 17 17 17 17 17 17 18 18 18 18 18 19 19 20 20
Wind_Direction
286 259 241 229 224 245 252 254 254 251 253 248 243 242 245 250 254 259 252 253 256 256 256 254 252 256 258 257 259 263 264 269 275 273 262 257 258 252 240 234 235 235 235 232 235 236 236 232 229
265 244 227 241 251 263 258 261 264 263 256 246 240 239 243 254 259 256 257 259 263 263 261 259 256 259 259 257 259 264 267 274 279 281 272 268 268 262 248 237 239 239 238 238 237 239 238 239 239
246 229 210 237 269 274 265 269 269 262 258 252 247 248 244 250 260 261 264 266 269 268 264 262 257 261 259 258 263 265 269 273 278 279 274 270 265 258 256 246 247 242 243 243 241 239 238 238 242
234 219 216 233 261 258 268 271 274 258 259 256 253 252 247 250 261 268 269 270 271 270 267 261 256 259 259 260 265 269 271 276 281 278 272 268 267 259 254 253 251 248 245 244 244 239 235 238 242
237 224 214 254 268 269 270 277 273 267 269 261 258 260 256 260 263 268 272 273 271 268 267 264 261 261 263 263 267 272 272 275 279 278 272 268 267 262 256 252 253 253 244 238 239 239 240 243 247
243 244 229 265 266 270 265 269 272 273 273 268 265 263 262 263 267 271 272 273 270 270 270 269 268 268 268 267 267 267 272 274 275 276 273 267 265 258 257 260 261 264 256 239 242 243 244 250 252
257 253 259 262 264 266 261 266 270 269 266 271 272 266 264 263 265 270 272 270 272 271 271 273 276 274 272 271 267 269 272 274 276 274 270 267 265 261 257 262 267 267 262 253 252 249 250 256 258
260 257 257 262 264 265 264 268 269 272 268 268 271 270 262 263 264 267 270 274 274 271 273 277 277 275 273 276 277 274 275 273 276 273 267 267 268 264 263 266 271 271 268 266 258 250 253 261 261
260 261 261 261 265 267 268 269 265 267 268 268 274 271 266 267 266 266 269 273 274 274 274 279 279 274 274 279 285 285 284 280 277 276 270 268 270 271 270 273 274 272 272 273 269 261 260 260 257
262 267 262 262 267 269 270 272 271 265 266 269 269 269 267 268 268 267 269 272 273 275 276 279 279 276 275 279 281 282 286 287 281 276 274 273 275 273 272 273 275 275 274 271 273 273 265 264 259
264 269 262 261 267 268 272 276 275 269 266 267 268 272 272 269 270 270 271 273 272 274 276 275 271 270 274 278 280 281 283 284 285 282 282 283 282 279 277 276 278 281 281 281 280 282 278 268 264
268 268 267 266 268 271 274 274 274 273 268 265 264 267 271 273 275 276 279 278 274 272 273 271 268 269 272 275 282 283 282 283 287 291 289 287 286 283 283 284 286 290 293 289 283 280 279 274 275
272 270 269 269 270 271 272 270 270 273 271 267 267 267 272 277 279 276 277 280 275 272 270 270 270 272 276 279 279 278 277 280 282 283 285 286 288 286 282 286 286 285 286 286 285 284 282 282 283
278 276 271 271 271 268 266 264 265 266 266 268 268 265 268 275 275 275 277 279 279 276 272 268 272 275 278 277 277 279 283 284 282 283 282 284 286 285 283 281 280 283 283 282 283 284 283 283 284
276 277 275 275 273 270 268 263 263 262 263 264 267 267 270 273 276 275 275 277 277 277 279 277 275 274 274 273 278 282 284 285 287 285 284 284 285 286 285 283 282 282 283 282 280 281 282 282 281
275 280 283 281 275 270 267 267 269 266 265 264 263 265 267 267 269 271 271 273 274 275 278 279 276 276 275 276 279 280 283 287 290 289 287 285 285 287 286 285 285 284 284 282 281 281 281 280 279
278 284 285 284 279 273 268 267 270 266 263 263 260 261 263 262 264 268 272 273 273 273 276 277 276 277 277 277 278 281 283 286 289 290 289 288 288 288 289 289 290 289 287 286 286 285 284 283 281
276 278 282 283 281 276 270 266 264 264 264 261 261 260 261 260 263 267 269 271 270 270 271 272 273 275 278 281 284 285 286 286 287 288 288 289 290 290 289 290 290 290 289 289 289 288 287 285 283
270 271 271 276 276 273 272 270 265 259 263 263 259 259 262 262 265 266 268 270 270 267 267 269 271 275 279 283 286 287 288 288 288 288 288 287 288 289 289 290 290 290 291 290 289 288 287 287 285
265 267 267 268 268 270 272 270 268 265 263 263 262 259 260 261 264 264 267 270 266 264 266 268 269 274 278 281 284 288 290 290 290 288 288 288 289 288 288 288 290 291 291 291 289 288 287 287 286
265 265 267 268 269 273 274 273 268 268 265 261 258 258 258 259 260 264 268 267 265 263 264 265 269 274 278 279 283 287 291 293 293 293 291 289 287 286 287 287 289 290 290 289 289 288 288 288 288
266 266 268 268 267 274 277 275 270 270 270 264 257 254 255 256 258 262 264 265 264 265 264 264 268 273 277 279 283 287 292 294 295 295 293 290 289 288 288 288 288 289 290 289 287 286 286 287 288
265 266 267 269 270 272 274 275 273 270 269 266 260 257 258 256 256 259 261 264 264 263 263 264 267 272 278 281 284 288 292 295 295 296 296 295 292 288 286 287 288 289 288 288 287 286 286 286 286
265 265 266 267 272 272 273 274 274 272 270 266 264 263 261 258 257 259 261 263 262 261 263 265 268 273 278 282 287 289 291 294 296 296 296 295 291 287 286 287 287 290 288 287 286 286 286 286 286
260 262 263 268 274 279 277 273 273 272 268 269 270 269 264 261 258 258 260 261 260 260 263 267 269 273 277 281 286 288 290 293 295 297 297 295 292 290 290 288 289 290 290 288 285 285 285 285 286
256 255 254 257 271 278 272 268 271 269 269 270 271 271 267 262 259 258 259 261 259 259 263 266 268 273 277 281 284 285 288 292 294 295 296 295 293 292 290 290 290 290 290 289 288 287 286 287 289
254 251 250 250 255 263 271 276 273 266 269 272 272 272 269 264 261 260 260 261 261 259 261 264 266 272 276 280 282 283 286 290 292 292 294 294 294 293 292 292 290 290 291 292 291 290 289 289 289
256 253 247 248 251 256 266 271 271 272 272 272 272 272 269 268 265 262 261 261 262 260 262 265 267 272 275 276 280 283 285 288 288 289 291 294 294 293 293 292 290 289 290 292 292 292 291 289 289
256 255 251 249 250 253 260 265 271 271 270 273 272 272 273 271 269 266 264 261 261 260 260 262 265 269 272 275 278 281 283 284 283 285 288 291 292 290 290 290 291 291 290 290 291 291 291 290 290
255 255 254 253 251 250 256 264 269 271 272 272 271 270 273 271 269 268 266 264 262 261 262 262 264 268 272 274 277 280 282 281 280 283 285 287 288 288 289 290 292 292 292 291 291 290 290 289 289
Height
5853 5853 5853 5855 5855 5855 5855 5855 5855 5855 5856 5856 5856 5856 5857 5858 5859 5861 5859 5859 5859 5860 5860 5860 5860 5861 5861 5861 5862 5862 5862 5862 5862 5862 5862 5863 5863 5863 5864 5864 5865 5865 5866 5867 5868 5868 5869 5870 5870
5852 5853 5854 5854 5854 5854 5855 5855 5855 5855 5855 5855 5856 5856 5857 5857 5858 5858 5858 5858 5858 5859 5859 5859 5860 5860 5860 5861 5861 5861 5862 5862 5862 5862 5862 5862 5862 5863 5863 5863 5864 5865 5865 5866 5867 5867 5868 5869 5869
5852 5852 5854 5854 5853 5854 5854 5854 5854 5855 5855 5855 5856 5856 5857 5857 5857 5857 5857 5858 5858 5858 5858 5858 5859 5859 5860 5860 5860 5861 5861 5861 5861 5861 5861 5861 5862 5862 5862 5863 5863 5864 5864 5865 5865 5866 5867 5868 5868
5852 5853 5854 5854 5853 5853 5853 5854 5854 5854 5854 5855 5855 5856 5856 5856 5857 5857 5857 5857 5857 5857 5858 5858 5858 5858 5859 5859 5860 5860 5860 5860 5860 5860 5860 5861 5861 5861 5862 5862 5863 5863 5863 5864 5864 5865 5865 5866 5867
5851 5852 5853 5853 5853 5853 5853 5853 5853 5854 5854 5854 5855 5855 5855 5856 5856 5856 5856 5856 5857 5857 5857 5857 5857 5858 5858 5858 5859 5859 5859 5859 5859 5859 5860 5860 5860 5860 5861 5861 5862 5862 5862 5863 5863 5863 5864 5864 5865
5851 5852 5852 5852 5852 5852 5853 5853 5853 5853 5854 5854 5854 5855 5855 5855 5855 5855 5855 5856 5856 5856 5856 5856 5857 5857 5857 5857 5857 5858 5858 5858 5858 5858 5859 5859 5859 5860 5860 5860 5861 5861 5861 5861 5862 5862 5862 5863 5863
5852 5851 5851 5851 5851 5852 5852 5852 5852 5853 5853 5853 5854 5854 5854 5854 5854 5855 5855 5855 5855 5855 5856 5856 5856 5856 5856 5856 5857 5857 5857 5857 5857 5858 5858 5858 5858 5859 5859 5860 5860 5860 5860 5860 5860 5860 5861 5861 5861
5850 5851 5850 5851 5851 5851 5851 5851 5852 5852 5853 5853 5853 5854 5854 5854 5854 5854 5854 5854 5854 5855 5855 5855 5855 5855 5856 5856 5856 5856 5856 5856 5857 5857 5857 5857 5858 5858 5858 5859 5859 5859 5859 5859 5859 5858 5859 5859 5860
5849 5851 5850 5850 5850 5851 5851 5851 5851 5852 5852 5852 5852 5853 5853 5853 5853 5853 5854 5854 5854 5854 5854 5854 5855 5855 5855 5855 5855 5855 5855 5856 5856 5856 5856 5857 5857 5857 5857 5858 5858 5858 5858 5858 5858 5857 5858 5858 5859
5849 5849 5849 5849 5849 5850 5850 5850 5850 5851 5851 5851 5852 5852 5852 5852 5852 5853 5853 5853 5853 5853 5853 5854 5854 5854 5854 5854 5854 5855 5855 5855 5855 5855 5855 5856 5856 5856 5856 5856 5857 5857 5856 5856 5857 5857 5857 5857 5857
5847 5848 5848 5848 5848 5849 5849 5849 5849 5849 5850 5850 5850 5851 5851 5851 5851 5852 5852 5852 5852 5852 5852 5852 5853 5853 5853 5854 5854 5854 5854 5854 5854 5854 5855 5855 5855 5855 5855 5855 5855 5855 5856 5856 5855 5855 5856 5856 5856
5847 5847 5847 5847 5847 5848 5848 5848 5848 5848 5849 5849 5849 5849 5850 5850 5850 5850 5851 5851 5851 5851 5851 5851 5852 5852 5852 5853 5853 5853 5853 5853 5853 5854 5854 5854 5854 5854 5854 5854 5854 5854 5854 5854 5854 5854 5855 5855 5855
5845 5845 5846 5846 5846 5846 5846 5846 5847 5847 5847 5847 5847 5847 5848 5848 5849 5849 5849 5849 5850 5850 5850 5851 5851 5851 5851 5852 5852 5852 5852 5852 5853 5853 5853 5853 5853 5853 5853 5853 5853 5853 5853 5853 5853 5853 5853 5853 5853
5844 5844 5844 5844 5844 5844 5845 5845 5845 5846 5846 5846 5846 5846 5847 5847 5847 5848 5848 5848 5849 5849 5849 5849 5850 5850 5850 5851 5851 5851 5851 5851 5851 5852 5852 5852 5852 5852 5852 5852 5852 5851 5851 5851 5851 5851 5851 5851 5851
5842 5842 5842 5842 5842 5843 5843 5843 5844 5844 5844 5844 5845 5845 5846 5846 5846 5847 5847 5847 5847 5848 5848 5848 5848 5848 5849 5849 5850 5850 5850 5850 5850 5850 5850 5850 5850 5850 5850 5850 5850 5849 5849 5849 5849 5849 5849 5848 5848
5840 5841 5841 5841 5840 5840 5842 5842 5842 5842 5842 5843 5843 5843 5844 5844 5845 5845 5846 5846 5846 5846 5847 5847 5847 5847 5848 5848 5848 5848 5849 5849 5848 5848 5848 5848 5848 5848 5848 5847 5847 5847 5846 5846 5846 5846 5846 5846 5845
5838 5839 5838 5839 5838 5838 5839 5839 5840 5840 5840 5841 5841 5842 5842 5843 5843 5844 5844 5844 5845 5845 5845 5846 5846 5846 5846 5847 5847 5847 5847 5847 5847 5847 5846 5846 5846 5845 5845 5845 5844 5844 5844 5843 5843 5842 5842 5842 5842
5837 5836 5836 5836 5836 5835 5835 5836 5837 5837 5837 5838 5839 5839 5840 5840 5841 5841 5842 5842 5843 5843 5843 5844 5844 5845 5845 5845 5845 5845 5845 5845 5845 5844 5844 5844 5843 5843 5842 5842 5842 5841 5841 5840 5840 5839 5838 5838 5838
5834 5834 5834 5834 5833 5833 5833 5833 5834 5834 5835 5836 5836 5837 5838 5838 5839 5839 5840 5840 5840 5840 5841 5842 5842 5843 5843 5843 5843 5843 5843 5842 5842 5842 5841 5841 5840 5840 5839 5839 5839 5838 5838 5837 5836 5835 5835 5834 5834
5831 5831 5831 5831 5830 5830 5830 5830 5831 5831 5832 5833 5834 5834 5835 5836 5836 5836 5837 5838 5838 5838 5839 5839 5840 5841 5841 5841 5841 5840 5840 5840 5839 5839 5838 5838 5837 5837 5836 5836 5835 5835 5834 5833 5832 5832 5831 5831 5830
5828 5828 5828 5828 5828 5827 5827 5827 5828 5829 5829 5830 5831 5832 5832 5833 5834 5834 5834 5835 5836 5836 5837 5837 5838 5838 5838 5838 5838 5838 5837 5837 5837 5836 5835 5835 5834 5833 5833 5832 5832 5831 5830 5829 5829 5828 5828 5827 5827
5824 5825 5825 5825 5824 5824 5825 5824 5825 5825 5826 5827 5828 5829 5829 5830 5830 5831 5832 5832 5833 5833 5834 5835 5835 5835 5835 5835 5835 5835 5835 5834 5833 5833 5832 5831 5830 5830 5829 5828 5828 5827 5826 5826 5825 5824 5824 5823 5823
5821 5822 5822 5822 5821 5822 5822 5822 5823 5822 5823 5824 5824 5825 5826 5827 5827 5828 5829 5830 5830 5831 5831 5832 5832 5832 5832 5832 5832 5832 5831 5831 5830 5829 5828 5828 5827 5826 5825 5824 5824 5823 5822 5822 5821 5820 5820 5819 5819
5817 5818 5818 5818 5818 5819 5820 5819 5819 5820 5820 5820 5821 5821 5822 5823 5824 5825 5826 5826 5827 5827 5828 5828 5829 5829 5829 5829 5829 5828 5828 5827 5826 5825 5824 5823 5823 5822 5821 5820 5820 5819 5818 5818 5817 5816 5816 5815 5815
5814 5815 5815 5815 5815 5816 5817 5816 5817 5817 5817 5817 5817 5817 5818 5819 5820 5821 5822 5822 5823 5824 5824 5825 5825 5825 5825 5825 5825 5824 5824 5823 5822 5821 5820 5819 5818 5817 5817 5816 5816 5815 5814 5813 5813 5812 5811 5811 5810
5809 5810 5812 5812 5813 5813 5813 5812 5814 5813 5813 5814 5814 5814 5814 5815 5816 5817 5818 5818 5819 5820 5821 5821 5821 5821 5821 5821 5821 5821 5820 5819 5818 5817 5816 5815 5814 5813 5813 5812 5811 5810 5810 5809 5809 5808 5807 5807 5806
5805 5805 5807 5808 5808 5809 5809 5809 5809 5809 5809 5809 5809 5810 5810 5810 5811 5812 5813 5814 5814 5816 5816 5816 5816 5817 5817 5817 5817 5816 5816 5815 5814 5813 5812 5811 5810 5809 5809 5808 5807 5807 5806 5805 5805 5804 5804 5803 5802
5801 5801 5802 5803 5804 5805 5806 5805 5805 5805 5805 5805 5805 5805 5806 5806 5807 5808 5808 5809 5810 5811 5811 5812 5812 5813 5813 5813 5812 5812 5811 5811 5810 5809 5809 5808 5807 5806 5805 5804 5803 5803 5802 5801 5801 5800 5799 5799 5798
5796 5797 5797 5799 5800 5801 5801 5803 5802 5801 5801 5801 5801 5801 5801 5801 5802 5803 5804 5804 5805 5805 5807 5807 5808 5808 5809 5809 5808 5808 5807 5806 5806 5805 5805 5804 5803 5802 5801 5800 5799 5799 5798 5797 5797 5796 5795 5794 5793
5791 5792 5793 5794 5795 5796 5796 5799 5797 5797 5796 5797 5797 5797 5797 5797 5797 5798 5799 5799 5799 5800 5801 5802 5803 5803 5804 5804 5804 5803 5803 5802 5802 5801 5800 5800 5799 5798 5797 5796 5795 5794 5794 5793 5792 5791 5790 5789 5788